Regional Weather Roundup
Issued by NWS

Home | Current Version | Previous Version | Graphics & Text | Print | Product List | Glossary On
Versions: 1 2 3 4 5 6 7 8 9 10 11 12 13 14 15 16 17 18 19 20 21 22 23 24 25 26 27 28 29 30 31 32 33 34 35 36 37 38 39 40 41 42 43 44 45 46 47 48 49 50
000
ASUS43 KOAX 250002
RWRNE

WEATHER ROUNDUP FOR NEBRASKA
NATIONAL WEATHER SERVICE OMAHA NE
700 PM CDT WED AUG 24 2016

NOTES: SATELLITE DATA IS BEING USED TO AUGMENT CLOUD COVER ABOVE
       12000 FEET.
       "FAIR" INDICATES FEW OR NO CLOUDS BELOW 12,000 FEET WITH NO
       SIGNIFICANT WEATHER AND/OR OBSTRUCTIONS TO VISIBILITY.

  * THESE STATIONS DO NOT REPORT WEATHER SUCH AS RAIN...SNOW OR FOG.

NEZ001>004-019>022-054>056-250100-
NEBRASKA PANHANDLE

CITY           SKY/WX    TMP DP  RH WIND       PRES   REMARKS
SCOTTSBLUFF    CLOUDY    71  48  43 E14       30.16R
6HR MIN TEMP:  68; 6HR MAX TEMP:  75;

ALLIANCE       CLOUDY    70  46  42 S5        30.17R
6HR MIN TEMP:  67; 6HR MAX TEMP:  73;

CHADRON        CLOUDY    75  41  29 NE8       30.13S
6HR MIN TEMP:  68; 6HR MAX TEMP:  78;

KIMBALL        CLOUDY    68  40  36 S8        30.22R
SIDNEY         PTSUNNY   69  39  33 SE7       30.20R
6HR MIN TEMP:  67; 6HR MAX TEMP:  75; 6HR PCP: TRACE;

$$

NEZ057>060-069>072-079>082-250100-
SOUTHWEST NEBRASKA

CITY           SKY/WX    TMP DP  RH WIND       PRES   REMARKS
NORTH PLATTE   PTSUNNY   75  49  39 SE13      30.11F
6HR MIN TEMP:  74; 6HR MAX TEMP:  82;

IMPERIAL       CLOUDY    74  41  30 SE13      30.13F
6HR MIN TEMP:  74; 6HR MAX TEMP:  79;

LEXINGTON      MOSUNNY   72  51  47 E7        30.12F
MCCOOK         PTSUNNY   71  47  42 E8        30.12F
6HR MIN TEMP:  71; 6HR MAX TEMP:  80;

OGALLALA       CLOUDY    75  38  25 E9        30.14F
$$

NEZ005>010-023>029-035>040-094-250100-
NORTH CENTRAL NEBRASKA

CITY           SKY/WX    TMP DP  RH WIND       PRES   REMARKS
VALENTINE      CLOUDY    69  47  45 CALM      30.13F
6HR MIN TEMP:  66; 6HR MAX TEMP:  71;

AINSWORTH      CLOUDY    67  55  66 CALM      30.14F
BROKEN BOW     CLOUDY    72  52  49 E3        30.12F
6HR MIN TEMP:  70; 6HR MAX TEMP:  79;

O`NEILL        CLOUDY    73  51  46 NW6       30.10F
ORD            SUNNY     72  53  51 E3        30.10S
6HR MIN TEMP:  72; 6HR MAX TEMP:  78;

THEDFORD       CLOUDY    70  50  48 NE5       30.16R
$$

NEZ041-046>049-061>064-073>077-083>087-250100-
SOUTH CENTRAL NEBRASKA

CITY           SKY/WX    TMP DP  RH WIND       PRES   REMARKS
GRAND ISLAND   CLOUDY    72  51  47 NE7       30.11S
6HR MIN TEMP:  70; 6HR MAX TEMP:  74;

AURORA         CLOUDY    70  58  67 N7        30.10S
HASTINGS       MOSUNNY   71  56  58 NE9       30.11S
6HR MIN TEMP:  67; 6HR MAX TEMP:  74; 6HR PCP:  0.01;

HEBRON         PTSUNNY   65  59  80 N5        30.07R
HOLDREGE       CLOUDY    69  53  56 NE7       30.11F
KEARNEY *      MOSUNNY   72  52  49 N9        30.10F
YORK           PTSUNNY   68  63  83 N5        30.09R
$$

NEZ011>018-030>034-042>045-250100-
NORTHEAST NEBRASKA

CITY           SKY/WX    TMP DP  RH WIND       PRES   REMARKS
NORFOLK        PTSUNNY   71  59  65 CALM      30.08S
6HR MIN TEMP:  69; 6HR MAX TEMP:  74;

ALBION         CLOUDY    72  52  48 NE3       30.10S
BLAIR          LGT RAIN  71  64  79 NW12      30.04F
FREMONT        LGT RAIN  68  62  79 CALM      30.06S
TEKAMAH        CLOUDY    69  64  84 NW3       30.06R
6HR MIN TEMP:  69; 6HR MAX TEMP:  81;

WAYNE          CLOUDY    68  64  87 CALM      30.08S
$$

NEZ050>053-065>068-078-088>093-250100-
SOUTHEAST NEBRASKA

CITY           SKY/WX    TMP DP  RH WIND       PRES   REMARKS
LINCOLN        LGT RAIN  71  64  78 E8        30.05S
6HR MIN TEMP:  70; 6HR MAX TEMP:  82; 6HR PCP:  0.05;

OMAHA EPPLEY   LGT RAIN  71  65  81 N9        30.02F
6HR MIN TEMP:  71; 6HR MAX TEMP:  84; 6HR PCP: TRACE;

BEATRICE       CLOUDY    67  64  91 NE6       30.04F
FALLS CITY     TSTM      73  73 100 NW8G17    30.00R FOG
6HR MIN TEMP:  73; 6HR MAX TEMP:  82; 6HR PCP:  0.28;

NEBRASKA CITY  LGT RAIN  71  71 100 CALM      30.05S
PLATTSMOUTH    DRIZZLE   70  66  88 CALM      30.04R
$$

NEZ044-045-051>053-067-250100-
OMAHA AREA

CITY           SKY/WX    TMP DP  RH WIND       PRES   REMARKS
OMAHA EPPLEY   LGT RAIN  71  65  81 N9        30.02F
6HR MIN TEMP:  71; 6HR MAX TEMP:  84; 6HR PCP: TRACE;

BLAIR          LGT RAIN  71  64  79 NW12      30.04F
FREMONT        LGT RAIN  68  62  79 CALM      30.06S
MILLARD        LGT RAIN  73  64  72 N6        30.02F
OFFUTT AFB     LGT RAIN  71  64  78 N7        30.02F
PLATTSMOUTH    DRIZZLE   70  66  88 CALM      30.04R
WAHOO          LGT RAIN  68  64  86 N7        30.05F
$$




USA.gov is the U.S. government's official web portal to all federal, state and local government web resources and services.